STARLINK-1731

decayed
NORAD ID: 46676 Int'l Des: 2020-073 Owner: SPXS Country: US Constellation: starlink
LEOCIRCULAR

关于 STARLINK-1731

正在加载描述...

高度历史

Altitude vs Time

uPlot chart will show altitude changes over time

两行轨道根数

1 46676U 20073G 21317.39922053 .57051952 12584-4 14820-2 0 9993
2 46676 53.0304 37.0674 0004719 359.0534 52.3573 16.45624965 61070
Epoch: Nov 13, 2021 • Age: 33505 hours

当前状态

Position data unavailable
发射日期 Oct 18, 2020
运行时间 4.8 years
衰减日期 Nov 13, 2021
类型 internet

技术详情

分类 Payload
质量 260.00 kg
干质量 248.00 kg
总质量 260.00 kg
长度 0.20 m
直径 2.80 m
跨度 9.00 m
形状 Box + pan
制造商 SPXS
平台类型 Starlink
阶段状态 Unknown Transfer Status
所有者/国家 SPXS/US

大型星座

Loading constellations...